Weather History for Kirksville, MO

Change the Weather History Date:

Friday, February 15, 2013

  Actual Average Record
Temperature  
Mean Temperature 25 °F 30 °F  
Max Temperature 35 °F 39 °F 73 °F (1921)
Min Temperature 15 °F 20 °F -11 °F (1936)
Degree Days  
Heating Degree Days 40 35  
Month to date heating degree days 496 554  
Since 1 July heating degree days 3872 4101  
Cooling Degree Days 0 0  
Month to date cooling degree days 0 0  
Year to date cooling degree days 0 0  
Moisture  
Dew Point 12 °F    
Average Humidity 55    
Maximum Humidity 75    
Minimum Humidity 35    
Precipitation  
Precipitation 0.00 in 0.04 in 0.80 in (1992)
Month to date precipitation 0.99 0.82  
Year to date precipitation 3.09 2.09  
Sea Level Pressure  
Sea Level Pressure 30.30 in    
Wind  
Wind Speed 9 mph (NW)    
Max Wind Speed 20 mph    
Max Gust Speed 26 mph    
Visibility 10 miles    
Events      
T = Trace of Precipitation, MM = Missing Value Source: NWS Daily Summary

Daily Weather History Graph

Daily Weather History Graph

Search for Another Location

Airport:

Trip Planner

Search our weather history database for the weather conditions in past years. The results will help you decide how hot, cold, wet, or windy it might be!

Date:

Astronomy

Feb. 15, 2013 Rise Set
Actual Time 7:02 AM CST 5:46 PM CST
Civil Twilight 6:35 AM CST 6:14 PM CST
Nautical Twilight 6:03 AM CST 6:45 PM CST
Astronomical Twilight 5:31 AM CST 7:17 PM CST
Moon 9:39 AM CST (2/15) 11:47 PM CST (2/15)
Length of Visible Light 11h 39m
Length of Day
10h 43m
Waxing Crescent, 30% of the Moon is Illuminated
Feb 15
Waxing Crescent
Feb 17
First Quarter
Feb 25
Full
Mar 4
Last Quarter
Mar 11
New

Hourly Weather History & Observations

Time (CST) Temp. Windchill Dew Point Humidity Pressure Visibility Wind Dir Wind Speed Gust Speed Precip Events Conditions
12:55 AM 28.9 °F 17.3 °F 21.9 °F 75% 30.17 in 10.0 mi NNW 16.1 mph 19.6 mph N/A   Mostly Cloudy
1:55 AM 27.0 °F 14.3 °F 19.9 °F 75% 30.20 in 10.0 mi NNW 17.3 mph 23.0 mph N/A   Mostly Cloudy
2:55 AM 25.0 °F 12.6 °F 17.1 °F 72% 30.22 in 10.0 mi NNW 15.0 mph 23.0 mph N/A   Overcast
3:55 AM 24.1 °F 13.1 °F 12.0 °F 60% 30.24 in 10.0 mi North 11.5 mph 21.9 mph N/A   Overcast
4:55 AM 23.0 °F 11.7 °F 12.0 °F 63% 30.27 in 10.0 mi NNW 11.5 mph 19.6 mph N/A   Overcast
5:55 AM 21.0 °F 11.4 °F 12.0 °F 68% 30.29 in 10.0 mi NW 8.1 mph - N/A   Clear
6:55 AM 19.9 °F 11.1 °F 12.0 °F 71% 30.31 in 10.0 mi NW 6.9 mph - N/A   Clear
7:55 AM 21.0 °F 12.4 °F 12.9 °F 71% 30.33 in 10.0 mi WNW 6.9 mph - N/A   Clear
8:55 AM 23.0 °F 13.1 °F 12.9 °F 65% 30.35 in 10.0 mi NW 9.2 mph - N/A   Clear
9:55 AM 26.1 °F 18.4 °F 10.9 °F 53% 30.35 in 10.0 mi NW 6.9 mph - N/A   Clear
10:55 AM 30.9 °F 24.3 °F 10.0 °F 42% 30.34 in 10.0 mi WNW 6.9 mph - N/A   Clear
11:55 AM 32.0 °F 23.6 °F 9.0 °F 38% 30.32 in 10.0 mi NW 10.4 mph 17.3 mph N/A   Clear
12:55 PM 34.0 °F 26.0 °F 8.1 °F 34% 30.30 in 10.0 mi NW 10.4 mph 18.4 mph N/A   Clear
1:55 PM 34.0 °F 25.0 °F 8.1 °F 34% 30.29 in 10.0 mi WNW 12.7 mph 20.7 mph N/A   Clear
2:55 PM 34.0 °F 23.4 °F 12.0 °F 40% 30.29 in 10.0 mi WNW 17.3 mph 21.9 mph N/A   Partly Cloudy
3:55 PM 30.0 °F 20.5 °F 12.9 °F 49% 30.31 in 10.0 mi WNW 11.5 mph 19.6 mph N/A   Overcast
4:55 PM 28.9 °F 19.8 °F 12.0 °F 49% 30.32 in 10.0 mi NNW 10.4 mph - N/A   Scattered Clouds
5:55 PM 27.0 °F 17.3 °F 9.0 °F 47% 30.32 in 10.0 mi NW 10.4 mph - N/A   Clear
6:55 PM 25.0 °F 16.3 °F 10.0 °F 53% 30.34 in 10.0 mi NNW 8.1 mph - N/A   Clear
7:55 PM 23.0 °F 15.8 °F 10.0 °F 58% 30.34 in 10.0 mi NNW 5.8 mph - N/A   Clear
8:55 PM 21.0 °F 16.2 °F 10.0 °F 63% 30.34 in 10.0 mi NNW 3.5 mph - N/A   Partly Cloudy
9:55 PM 19.0 °F - 10.0 °F 68% 30.33 in 10.0 mi Calm Calm - N/A   Clear
10:55 PM 17.1 °F 11.7 °F 10.0 °F 74% 30.32 in 10.0 mi NW 3.5 mph - N/A   Clear
11:55 PM 19.0 °F 12.3 °F 10.9 °F 71% 30.32 in 10.0 mi NW 4.6 mph - N/A   Clear